Location: Unspecified
(0.0000°N, 0.0000°E)
Time: 13:54:59
(UTC+01:00)

Delta 168 - Visible Passes

Search period start: 20 December 2014 00:00
Search period end: 30 December 2014 00:00
Orbit: 395 x 2105 km, 25.3° (Epoch: 19 December)

Date Brightness Start Highest point End Pass type
(mag) Time Alt. Az. Time Alt. Az. Time Alt. Az.
20 Dec 5.0 19:04:05 10° WNW 19:15:35 72° NNE 19:23:20 10° ESE visible
20 Dec 5.4 21:05:42 10° W 21:14:04 40° SSW 21:17:30 23° SSE visible
21 Dec 5.7 21:00:56 10° W 21:09:18 35° SSW 21:14:11 15° SSE visible
22 Dec 5.7 05:02:50 10° S 05:04:08 11° SSE 05:05:33 10° SE visible
22 Dec 6.0 20:56:13 10° W 21:04:32 31° SSW 21:10:26 10° SSE visible
23 Dec 5.3 04:58:00 11° S 04:59:35 14° SSE 05:01:46 10° ESE visible
23 Dec 6.3 20:51:33 10° W 20:59:46 28° SSW 21:05:44 10° SSE visible
24 Dec 5.0 04:54:36 17° SSE 04:55:02 17° SSE 04:57:42 10° ESE visible
24 Dec 6.5 20:46:56 10° W 20:54:59 26° SSW 21:01:00 10° SSE visible
25 Dec 5.0 04:51:12 21° SE 04:51:12 21° SE 04:53:29 10° E visible
25 Dec 6.6 20:42:22 10° WSW 20:50:13 23° SSW 20:56:15 10° SSE visible
26 Dec 5.2 04:47:48 18° ESE 04:47:48 18° ESE 04:49:08 10° E visible
26 Dec 6.7 20:37:51 10° WSW 20:45:29 22° SSW 20:51:29 10° SSE visible
27 Dec 5.5 04:44:21 12° E 04:44:21 12° E 04:44:42 10° E visible
27 Dec 6.8 20:33:21 10° WSW 20:40:45 20° SSW 20:46:42 10° SSE visible
28 Dec 4.4 06:31:42 10° WNW 06:34:10 17° NNW 06:37:09 10° NNE visible
28 Dec 6.9 20:28:53 10° WSW 20:36:03 19° SSW 20:41:56 10° SSE visible
29 Dec 4.6 06:28:09 10° NW 06:29:45 13° NNW 06:31:32 10° N visible
29 Dec 6.9 20:24:25 10° WSW 20:31:22 18° SSW 20:37:11 10° SSE visible
